Simultaneous Nadir Overpasses (SNOs) Predictions

Prediction of SNOs between NOAA-21 and LANDSAT-8 Satellite Orbit:

Table of predicted SNOs for the next 14.0 days since TLE Epoch: 7/27/2024
Index Date (NOAA-21) Time (NOAA-21) Lat,Lon (NOAA-21) SZA (NOAA-21 ) Date (LANDSAT-8) Time (LANDSAT-8) Lat,Lon (LANDSAT-8) SZA (LANDSAT-8 ) Distance(km) Time Diff (sec)
1 07/28/2024 22:36:54 -70.09, 17.03 128.61 07/28/2024 22:37:26 -70.10, 17.01 128.60 1.79 32
2 07/28/2024 23:27:38 69.98,-175.49 51.29 07/28/2024 23:26:53 70.00,-175.48 51.32 2.99 45
3 07/31/2024 14:03:12 70.33, -34.90 52.30 07/31/2024 14:04:24 70.25, -34.52 52.19 16.92 72
4 07/31/2024 14:53:51 -70.07, 132.83 127.97 07/31/2024 14:53:55 -70.08, 132.87 127.97 1.98 4
5 07/31/2024 15:44:34 69.91, -59.63 51.87 07/31/2024 15:43:23 69.93, -59.70 51.90 3.25 71
6 08/03/2024 06:20:04 70.12, 81.20 52.76 08/03/2024 06:20:53 70.14, 81.21 52.77 2.29 49
7 08/03/2024 07:10:46 -70.01,-111.32 127.35 08/03/2024 07:10:23 -70.03,-111.32 127.33 1.66 23
8 08/05/2024 21:46:34 -71.11, 28.05 125.48 08/05/2024 21:47:40 -70.98, 30.71 125.72 97.36 66
9 08/05/2024 22:37:00 70.08,-162.96 53.44 08/05/2024 22:37:21 70.11,-162.94 53.46 3.28 21
10 08/05/2024 23:27:42 -69.97, 4.52 126.67 08/05/2024 23:26:51 -70.00, 4.53 126.64 3.40 51
11 08/08/2024 14:03:12 -70.14, 145.41 125.76 08/08/2024 14:04:22 -70.15, 145.37 125.76 2.19 70
12 08/08/2024 14:53:56 70.05, -47.14 54.15 08/08/2024 14:53:49 70.04, -47.15 54.15 0.77 7
13 08/08/2024 15:44:34 -69.72, 120.67 126.18 08/08/2024 15:43:22 -69.77, 120.10 126.11 22.28 72



Historial Predications of SNOs between NOAA-21 and LANDSAT-8
